Date,TemperatureHighF,TemperatureAvgF,TemperatureLowF,DewpointHighF,DewpointAvgF,DewpointLowF,HumidityHigh,HumidityAvg,HumidityLow,PressureMaxIn,PressureMinIn,WindSpeedMaxMPH,WindSpeedAvgMPH,GustSpeedMaxMPH,PrecipitationSumIn
2013-5-1,88.8,69.9,49.2,43.4,29.8,16.9,67,28,9,29.98,29.75,12,2,17,0.00
2013-5-2,94.3,67.0,42.9,47.4,37.1,28.8,80,43,11,30.02,29.95,7,1,12,0.00
2013-5-3,96.3,67.2,42.2,48.1,41.6,37.1,84,48,15,29.96,29.69,8,1,14,0.00
2013-5-4,92.1,67.3,50.7,51.2,43.0,31.3,86,51,12,29.69,29.44,13,2,19,0.00
2013-5-5,63.1,57.9,52.5,52.7,48.7,47.4,86,72,60,29.71,29.51,7,1,16,0.00
2013-5-6,70.8,59.9,46.5,52.1,48.6,44.3,96,69,44,29.85,29.71,10,1,13,0.00
2013-5-7,74.7,60.3,46.0,52.7,49.1,44.3,97,70,41,29.92,29.85,7,1,14,0.00
2013-5-8,72.1,57.2,51.0,54.7,50.1,46.9,94,79,52,30.01,29.91,11,1,14,0.00
2013-5-9,77.2,58.8,44.8,55.7,49.4,42.9,96,74,46,30.05,29.94,12,1,15,0.00
2013-5-10,81.2,61.7,48.5,58.0,51.3,45.7,92,72,44,30.06,29.97,9,1,15,0.00
2013-5-11,91.4,64.0,45.5,60.2,51.4,43.7,98,69,31,30.03,29.91,9,1,14,0.00
2013-5-12,88.4,63.9,42.8,61.9,51.1,41.2,97,68,36,30.01,29.89,9,1,16,0.00
2013-5-13,90.5,65.9,46.1,57.8,49.4,43.9,99,62,25,29.96,29.81,14,3,21,0.00
2013-5-14,90.1,69.9,51.1,50.4,44.9,38.2,85,46,20,29.86,29.75,16,3,18,0.00
2013-5-15,81.8,61.7,43.9,48.0,43.5,40.1,91,56,25,29.89,29.84,14,3,21,0.00
2013-5-16,75.1,64.1,54.5,51.0,48.0,43.9,70,57,35,29.89,29.80,13,4,17,0.00
2013-5-17,77.6,62.1,48.9,49.0,43.5,34.8,81,54,28,29.95,29.84,11,2,19,0.00
2013-5-18,81.2,63.5,41.9,50.4,44.4,38.8,91,55,26,30.00,29.94,13,4,19,0.00
2013-5-19,90.5,70.1,52.6,47.0,42.8,34.9,70,43,15,30.02,29.85,11,2,15,0.00
2013-5-20,93.6,71.0,50.5,50.1,44.4,33.0,82,47,13,29.90,29.77,12,1,15,0.00
2013-5-21,72.3,59.8,48.5,46.1,42.1,34.7,87,55,31,29.89,29.78,20,6,28,0.00
2013-5-22,70.1,56.4,45.7,40.1,33.4,25.6,68,44,22,29.92,29.79,16,5,20,0.00
2013-5-23,76.5,58.6,46.2,43.1,38.6,32.9,73,51,21,29.89,29.78,14,4,20,0.00
2013-5-24,80.3,61.5,46.1,44.3,40.1,35.0,77,50,23,29.88,29.78,14,2,17,0.00
2013-5-25,79.8,61.4,42.1,47.3,41.7,33.7,88,53,20,29.92,29.82,18,3,23,0.00
2013-5-26,77.6,64.2,53.8,49.7,46.6,40.9,82,56,28,29.98,29.90,16,4,19,0.00
2013-5-27,63.9,58.3,51.9,56.0,50.4,42.9,97,76,63,29.99,29.88,12,1,13,0.06
2013-5-28,80.7,64.4,55.0,58.3,54.0,49.9,99,73,37,29.88,29.78,9,1,13,0.02
2013-5-29,81.4,65.6,56.2,52.1,48.1,41.9,79,56,25,29.83,29.75,13,4,21,0.00
2013-5-30,84.5,65.7,52.2,45.9,42.4,28.5,71,47,15,29.87,29.80,15,4,20,0.00
2013-5-31,94.7,72.8,54.8,50.9,44.2,37.3,66,40,15,29.90,29.78,12,2,17,0.00